Tracking 18980 objects as of 20-Feb-2018
HD Live streaming from Space Station
objects crossing your sky now

FENGYUN 1C DEB

Track FENGYUN 1C DEB now!
10-day predictions


NORAD ID: 33623
Int'l Code: 1999-025DDG
Perigee: 823.9 km
Apogee: 944.5 km
Inclination: 98.2 °
Period: 102.5 minutes
Semi major axis: 7255 km
RCS: 0.0124 m2 (small)
Launch date: May 10, 1999
Source: People's Republic of China (PRC)
Launch site: Taiyaun Space Center, China (TSC)

Note: This is SATELLITE DEBRIS
aabbcc
Your satellite tracking list
Your tracking list is empty




NASA's NSSDC Master Catalog

Two Line Element Set (TLE):
1 33623U 99025DDG 18049.14845520  .00000608  00000-0  39037-3 0  9992
2 33623  98.1892  12.2802 0083133 251.6148 107.5968 14.04836603521566
Source of the keplerian elements: AFSPC